TimeMDT,TemperatureF,Dew PointF,Humidity,Sea Level PressureIn,VisibilityMPH,Wind Direction,Wind SpeedMPH,Gust SpeedMPH,PrecipitationIn,Events,Conditions,WindDirDegrees,DateUTC
12:52 AM,69.1,21.0,16,29.84,10.0,SSW,5.8,-,N/A,,Clear,200,2013-06-12 06:52:00
1:52 AM,68.0,21.9,17,29.84,10.0,South,9.2,-,N/A,,Clear,180,2013-06-12 07:52:00
2:52 AM,63.0,21.0,20,29.85,10.0,SW,6.9,-,N/A,,Clear,220,2013-06-12 08:52:00
3:52 AM,63.0,21.0,20,29.84,10.0,SW,9.2,-,N/A,,Clear,220,2013-06-12 09:52:00
4:52 AM,64.9,21.0,19,29.83,10.0,SSW,9.2,-,N/A,,Clear,200,2013-06-12 10:52:00
5:52 AM,64.0,21.9,20,29.84,10.0,SSW,12.7,-,N/A,,Clear,210,2013-06-12 11:52:00
6:52 AM,63.0,21.9,21,29.87,10.0,SSW,11.5,-,N/A,,Clear,210,2013-06-12 12:52:00
7:52 AM,69.1,24.1,18,29.86,10.0,SSW,10.4,-,N/A,,Clear,210,2013-06-12 13:52:00
8:52 AM,72.0,28.0,20,29.89,10.0,SSW,10.4,-,N/A,,Clear,200,2013-06-12 14:52:00
9:52 AM,78.1,25.0,14,29.89,10.0,SSW,11.5,-,N/A,,Clear,210,2013-06-12 15:52:00
10:52 AM,81.0,25.0,13,29.89,10.0,South,15.0,-,N/A,,Clear,190,2013-06-12 16:52:00
11:52 AM,88.0,12.9,6,29.85,10.0,SW,24.2,34.5,N/A,,Clear,220,2013-06-12 17:52:00
12:52 PM,90.0,18.0,7,29.83,10.0,SW,16.1,25.3,N/A,,Clear,220,2013-06-12 18:52:00
1:52 PM,91.0,18.0,7,29.81,9.0,SSW,20.7,32.2,N/A,,Clear,200,2013-06-12 19:52:00
2:52 PM,93.9,17.1,6,29.80,8.0,SSW,24.2,35.7,N/A,,Clear,210,2013-06-12 20:52:00
3:52 PM,93.0,18.0,6,29.78,10.0,SSW,27.6,38.0,N/A,,Clear,200,2013-06-12 21:52:00
4:52 PM,91.9,21.0,8,29.78,9.0,SW,26.5,43.7,N/A,,Clear,220,2013-06-12 22:52:00
5:52 PM,91.0,16.0,6,29.76,10.0,SSW,25.3,40.3,N/A,,Clear,210,2013-06-12 23:52:00
6:52 PM,88.0,23.0,9,29.77,10.0,SSW,21.9,42.6,N/A,,Clear,200,2013-06-13 00:52:00
7:52 PM,87.1,19.0,8,29.75,10.0,SW,24.2,38.0,N/A,,Clear,220,2013-06-13 01:52:00
8:52 PM,82.9,21.9,11,29.76,10.0,SSW,17.3,25.3,N/A,,Clear,210,2013-06-13 02:52:00
9:52 PM,75.9,24.1,15,29.77,10.0,South,9.2,-,N/A,,Clear,190,2013-06-13 03:52:00
10:52 PM,72.0,26.1,18,29.78,10.0,South,9.2,-,N/A,,Clear,190,2013-06-13 04:52:00
11:52 PM,75.0,30.0,19,29.75,10.0,SSW,11.5,-,N/A,,Clear,200,2013-06-13 05:52:00